Location: Oak Glen
(34.0495°N, 116.9470°E)
Time: 03:20:33
(UTC-07:00)

ISS - Pass Details

Date: 15 October 2017
Orbit: 401 x 408 km, 51.6° (Epoch: 20 October)

Event Time Altitude Azimuth Distance (km) Brightness Sun altitude
Rises 04:51:29 0° 297° (WNW) 2,318 1.1 -28.3°
Reaches altitude 10° 04:53:55 10° 280° (W) 1,456 -0.1 -28.8°
Enters shadow 04:55:01 16° 263° (W) 1,169 -0.8 -29.0°
